User: anonymous   Login
Location: Chomutov
(50.4500°N, 13.4333°E)
Time: 18:49:54
(UTC+02:00)
Language:

First-Move - Orbit

View from above orbital plane
View from above orbital plane
View from above satellite
View from above satellite

Ground track
Ground track

The orbit data is extracted from the following two-line orbital elements,

1 39439U 13066Z   21267.89129927  .00000899  00000-0  11374-3 0  9994
2 39439  97.6074 248.8047 0063955 191.1300 168.8503 14.82766594422684
Epoch (UTC): 24 September 2021 21:23:28
Eccentricity: 0.0063955
inclination: 97.6074°
perigee height: 576 km
apogee height: 665 km
right ascension of ascending node: 248.8047°
argument of perigee: 191.1300°
revolutions per day: 14.82766594
mean anomaly at epoch: 168.8503°
orbit number at epoch: 42268

The dashed part of the orbit path shows where the satellite is in the earth's shadow,  

DLR